This is the latest recevied weather packets stored in our database for station/object KF4PPJ. If no packets are shown the sender has not sent any weather packets the latest 10 day(s).
| Time | Temp. | Humidity | Pressure | Rain* | Wind** | Luminosity | Snow |
|---|---|---|---|---|---|---|---|
| 1777776136 | 21.67° C | 53% | 1015.4 hPa | 0 mm | - | 22 W/m² | - |
| 1777775833 | 21.67° C | 53% | 1015.2 hPa | 0 mm | - | 25 W/m² | - |
| 1777775524 | 21.67° C | 52% | 1015.2 hPa | 0 mm | - | 27 W/m² | - |
| 1777775220 | 22.22° C | 52% | 1015.2 hPa | 0 mm | - | 29 W/m² | - |
| 1777774920 | 22.22° C | 51% | 1015.3 hPa | 0 mm | - | 32 W/m² | - |
| 1777774617 | 22.22° C | 52% | 1015.2 hPa | 0 mm | - | 35 W/m² | - |
| 1777774313 | 22.78° C | 51% | 1015.2 hPa | 0 mm | - | 37 W/m² | - |
| 1777774011 | 22.78° C | 51% | 1015.2 hPa | 0 mm | - | 39 W/m² | - |
| 1777773708 | 22.78° C | 51% | 1015.3 hPa | 0 mm | - | 55 W/m² | - |
| 1777773405 | 22.78° C | 50% | 1015 hPa | 0 mm | - | 43 W/m² | - |
| 1777773102 | 22.78° C | 50% | 1015.2 hPa | 0 mm | - | 45 W/m² | - |
| 1777772797 | 23.33° C | 49% | 1015.2 hPa | 0 mm | - | 46 W/m² | - |
| 1777772496 | 23.33° C | 49% | 1015.2 hPa | 0 mm | - | 48 W/m² | - |
| 1777772193 | 23.33° C | 48% | 1015.3 hPa | 0 mm | - | 50 W/m² | - |
| 1777771891 | 23.89° C | 48% | 1015.2 hPa | 0 mm | - | 52 W/m² | - |
| 1777771587 | 23.89° C | 46% | 1015.1 hPa | 0 mm | - | 109 W/m² | - |
| 1777771284 | 23.89° C | 46% | 1015.5 hPa | 0 mm | - | 207 W/m² | - |
| 1777770981 | 24.44° C | 46% | 1015.5 hPa | 0 mm | - | 232 W/m² | - |
| 1777770678 | 24.44° C | 46% | 1015.4 hPa | 0 mm | - | 108 W/m² | - |
| 1777770374 | 24.44° C | 45% | 1015.4 hPa | 0 mm | - | 180 W/m² | - |
| 1777770072 | 24.44° C | 45% | 1015.5 hPa | 0 mm | - | 281 W/m² | - |
| 1777769768 | 24.44° C | 45% | 1015.6 hPa | 0 mm | - | 287 W/m² | - |
| 1777769466 | 23.89° C | 46% | 1015.5 hPa | 0 mm | - | 281 W/m² | - |
| 1777769162 | 24.44° C | 45% | 1015.4 hPa | 0 mm | - | 297 W/m² | - |
| 1777768861 | 24.44° C | 46% | 1015.6 hPa | 0 mm | - | 319 W/m² | - |
* Rain latest hour (hover to see other rain measurements)
** Current wind speed in m/s (hover to see current wind gust speed)